[[{"header":{"parameterUnit":"m.s-1","parameterCategory":1,"la1":30.2991,"la2":30.254,"lo1":-89.0895,"lo2":-89.0444,"dy":0.0017,"dx":0.0017,"nx":28,"ny":28,"refTime":"2024-09-30T03:00:00:Z","depth":0,"parameterNumber":2,"parameterNumberName":"U-component_of_WINDS"},"data":[0,0,0,0,0,0,0,0,0,0,0,0,0,0,0,0,0,0,0,0,0,0,0,0,0,0,0,0,0,0,0,0,0,0,0,0,0,0,0,0,0,0,0,0,0,0,0,0,0,0,0,0,0,0,0,0,0,0,1.2087,1.2088,0,1.2155,1.2156,1.2157,1.2159,1.2158,1.2157,1.2156,1.2224,1.2227,1.2229,0,0,0,0,0,0,0,0,0,0,0,0,0,1.1955,1.1957,1.2087,1.2088,1.2089,1.2155,1.2156,1.2157,1.2159,1.2158,1.2157,1.2156,1.2223,1.2226,1.223,0,0,0,0,0,0,0,0,0,0,0,0,0,1.2016,1.1958,1.2087,1.2098,1.2099,1.2155,1.2156,1.2157,1.2159,1.2158,1.2157,1.2155,1.2222,1.2226,1.223,1.2279,0,0,1.2242,1.2244,0,0,0,0,0,0,0,0,1.2013,1.2021,1.2095,1.2097,1.2099,1.2147,1.2134,1.2198,1.2159,1.2136,1.2156,1.2155,1.22,1.2205,1.2221,1.2282,1.2285,1.2242,1.2245,1.2246,1.2247,0,0,0,0,0,0,0,1.2009,1.2018,1.2114,1.2096,1.2098,1.2098,1.2105,1.2146,1.2174,1.2138,1.2138,1.2147,1.22,1.2217,1.2222,1.2286,1.2242,1.2246,1.2248,1.2249,1.2389,1.239,0,0,0,0,0,0,1.2002,1.2015,1.2112,1.2116,1.2052,1.2101,1.211,1.2133,1.2174,1.2179,1.2148,1.2147,1.2211,1.2218,1.2225,1.2283,1.2246,1.225,1.2252,1.2388,1.2389,1.2391,0,0,0,0,0,0,1.2,1.2011,1.2109,1.2065,1.2078,1.2105,1.2131,1.2135,1.2152,1.2181,1.2185,1.216,1.221,1.2219,1.2265,1.2286,1.2252,1.2255,1.2386,1.2388,1.239,1.2402,0,0,0,0,0,0,1.1996,1.201,1.203,1.2066,1.208,1.2149,1.2132,1.2137,1.2159,1.2158,1.2193,1.2198,1.221,1.2259,1.2269,1.229,1.2258,1.2384,1.2387,1.239,1.24,1.2404,1.2408,0,0,0,0,0,1.1991,1.203,1.2031,1.2042,1.2105,1.215,1.2158,1.2172,1.216,1.218,1.2198,1.2197,1.2282,1.2264,1.2275,1.2298,1.2383,1.2386,1.2389,1.2398,1.2403,1.2408,0,0,0,0,0,0,1.1995,1.2035,1.2036,1.2088,1.2116,1.2151,1.2175,1.2177,1.2208,1.2206,1.2221,1.2229,1.2274,1.2291,1.227,1.2346,1.2331,1.2337,1.2334,1.2339,1.2343,1.2338,1.2261,0,0,0,0,0,1.2002,1.2036,1.2069,1.2112,1.2126,1.2148,1.2168,1.2176,1.2205,1.2217,1.2239,1.2266,1.2299,1.232,1.2352,1.2402,1.2409,1.2423,1.2427,1.2431,1.2435,1.2461,1.2467,1.2401,1.2401,1.2401,0,0,1.2017,1.2043,1.2063,1.2113,1.2136,1.2169,1.2158,1.2195,1.2219,1.2222,1.2266,1.2283,1.2315,1.2363,1.2385,1.2378,1.2455,1.2435,1.2437,1.2439,1.2465,1.2471,1.2476,1.2403,1.2403,1.2403,0,0,1.2061,1.2085,1.2122,1.2145,1.2179,1.2193,1.2202,1.2237,1.2248,1.2293,1.2296,1.2325,1.2382,1.2403,1.2422,1.2473,1.2473,1.2483,1.2504,1.2529,1.2534,1.2539,1.2556,1.2562,1.2487,1.2487,1.2487,0,1.2074,1.2126,1.2141,1.2177,1.2198,1.2203,1.224,1.2261,1.2304,1.2318,1.2309,1.238,1.2401,1.2454,1.2466,1.2482,1.2491,1.2479,1.2532,1.2537,1.2542,1.2558,1.2564,1.2488,1.2488,1.2488,1.2488,0,1.214,1.2176,1.2202,1.2244,1.2268,1.2304,1.2323,1.2346,1.2352,1.2367,1.2411,1.2438,1.2474,1.2487,1.2493,1.254,1.2535,1.253,1.2514,1.2549,1.2564,1.257,1.249,1.2489,1.2489,1.2489,0,0,1.2188,1.2237,1.2246,1.2264,1.2302,1.2329,1.2366,1.2402,1.242,1.2449,1.2479,1.2527,1.2521,1.2542,1.2551,1.2573,1.261,1.2565,1.2566,1.2571,1.2662,1.2664,1.2671,1.2611,1.2612,1.2613,1.2658,0,1.2235,1.23,1.2314,1.237,1.2402,1.2407,1.2438,1.2464,1.2479,1.2508,1.2524,1.2557,1.2548,1.2561,1.2583,1.2601,1.2628,1.2598,1.2637,1.2638,1.2628,1.268,1.2683,1.2725,1.2665,1.2666,1.2666,0,1.2298,1.2329,1.2388,1.242,1.2435,1.2463,1.2496,1.2524,1.2553,1.2562,1.2585,1.2591,1.2627,1.2611,1.2661,1.264,1.2656,1.2667,1.2669,1.2672,1.2653,1.2683,1.2739,1.2744,1.2676,1.2676,1.2675,0,1.2325,1.2382,1.2424,1.244,1.2479,1.2498,1.2515,1.2543,1.2563,1.2593,1.2606,1.2639,1.2656,1.2681,1.2695,1.2682,1.2743,1.2728,1.275,1.275,1.2762,1.2761,1.282,1.2775,1.2775,1.2775,1.2775,0,1.2375,1.2411,1.2436,1.2462,1.2502,1.2517,1.2555,1.2572,1.2597,1.2625,1.2631,1.2657,1.2675,1.2703,1.2714,1.2752,1.2761,1.2768,1.277,1.2767,1.2766,1.2777,1.2774,1.2777,1.2776,1.2776,1.2776,0,1.2412,1.2431,1.2477,1.251,1.2519,1.2547,1.2575,1.2599,1.2614,1.265,1.2659,1.2682,1.2715,1.2732,1.2774,1.2781,1.2824,1.2825,1.2815,1.2815,1.2836,1.2833,1.2903,1.2913,1.2863,1.2863,1.2864,0,1.2442,1.2469,1.2506,1.2525,1.2543,1.2575,1.2595,1.2611,1.2632,1.2667,1.2687,1.2721,1.2749,1.2802,1.2822,1.2853,1.2854,1.2877,1.2859,1.2854,1.2853,1.2851,1.2853,1.2879,1.288,1.288,1.2881,0,1.2493,1.25,1.2531,1.2564,1.2589,1.2616,1.2643,1.2658,1.2678,1.2701,1.2736,1.2757,1.28,1.2833,1.2866,1.2882,1.2884,1.2886,1.2893,1.2889,1.2881,1.2884,1.2822,1.2884,1.2884,1.2884,1.2884,1.2883,1.2526,1.255,1.2579,1.2612,1.2634,1.2658,1.2683,1.2701,1.273,1.2766,1.2773,1.281,1.2837,1.2881,1.2898,1.2926,1.2921,1.2931,1.2933,1.2935,1.2935,1.2877,1.2932,1.2932,1.2932,1.2932,1.2932,0,1.2576,1.2595,1.2625,1.2662,1.2688,1.2689,1.2718,1.2739,1.2771,1.2796,1.2823,1.2862,1.2894,1.2916,1.2949,1.2966,1.2968,1.2974,1.2972,1.2976,1.2939,1.2929,1.2972,1.2972,1.2972,1.2972,1.2972,1.2972,1.2605,1.2645,1.2656,1.2707,1.2725,1.2761,1.2777,1.2799,1.2819,1.2863,1.289,1.2904,1.2928,1.2962,1.299,1.2996,1.3007,1.3013,1.3018,1.2983,1.2979,1.2974,1.2965,1.3015,1.3015,1.3053,1.3053,1.3053]},{"header":{"parameterUnit":"m.s-1","parameterCategory":1,"la1":30.2991,"la2":30.254,"lo1":-89.0895,"lo2":-89.0444,"dy":0.0017,"dx":0.0017,"nx":28,"ny":28,"refTime":"2024-09-30T03:00:00:Z","depth":0,"parameterNumber":3,"parameterNumberName":"V-component_of_WINDS"},"data":[0,0,0,0,0,0,0,0,0,0,0,0,0,0,0,0,0,0,0,0,0,0,0,0,0,0,0,0,0,0,0,0,0,0,0,0,0,0,0,0,0,0,0,0,0,0,0,0,0,0,0,0,0,0,0,0,0,0,1.9215,1.9215,0,1.9186,1.9186,1.9185,1.913,1.9129,1.9128,1.9127,1.9098,1.9098,1.9098,0,0,0,0,0,0,0,0,0,0,0,0,0,1.9223,1.9223,1.9215,1.9215,1.9214,1.9186,1.9186,1.9185,1.913,1.9129,1.9127,1.9126,1.9098,1.9098,1.9098,0,0,0,0,0,0,0,0,0,0,0,0,0,1.921,1.9223,1.9215,1.9183,1.918,1.9186,1.9186,1.9185,1.913,1.9129,1.9127,1.9125,1.9098,1.9098,1.9098,1.9133,0,0,1.9099,1.91,0,0,0,0,0,0,0,0,1.921,1.9209,1.9188,1.9185,1.9182,1.916,1.9178,1.9168,1.9131,1.9149,1.9127,1.9125,1.912,1.9118,1.9116,1.9132,1.913,1.9099,1.91,1.91,1.91,0,0,0,0,0,0,0,1.9211,1.921,1.9203,1.9188,1.9184,1.9171,1.9167,1.9176,1.9144,1.9147,1.9143,1.9141,1.9118,1.9116,1.9115,1.913,1.9099,1.91,1.91,1.91,1.9172,1.9173,0,0,0,0,0,0,1.9217,1.9211,1.9204,1.9203,1.9192,1.9172,1.9168,1.9169,1.9144,1.9138,1.9142,1.9138,1.9116,1.9115,1.9114,1.9152,1.91,1.91,1.91,1.917,1.9172,1.9174,0,0,0,0,0,0,1.9217,1.9217,1.9206,1.9206,1.9203,1.9173,1.9175,1.9169,1.9167,1.914,1.9134,1.9146,1.9115,1.9114,1.9128,1.9151,1.91,1.9101,1.9168,1.9171,1.9173,1.923,0,0,0,0,0,0,1.9218,1.9217,1.923,1.9207,1.9204,1.9221,1.9176,1.9169,1.9168,1.9162,1.9142,1.9137,1.9114,1.9128,1.9129,1.915,1.9101,1.9166,1.9169,1.9172,1.9226,1.9234,1.9241,0,0,0,0,0,1.9218,1.9248,1.9231,1.923,1.9219,1.9222,1.922,1.9192,1.917,1.9182,1.9165,1.9138,1.9148,1.913,1.913,1.9152,1.9164,1.9168,1.9172,1.9223,1.9233,1.9241,0,0,0,0,0,0,1.9275,1.9244,1.9225,1.9248,1.9238,1.9213,1.9228,1.9204,1.92,1.9196,1.9162,1.9157,1.9177,1.9166,1.9146,1.9184,1.9152,1.9156,1.9191,1.92,1.9207,1.9209,1.9101,0,0,0,0,0,1.929,1.9295,1.9268,1.929,1.9286,1.9258,1.9258,1.9238,1.9226,1.9222,1.9205,1.9195,1.9196,1.9197,1.9197,1.9224,1.9219,1.9239,1.9247,1.9253,1.9257,1.927,1.9279,1.9186,1.9186,1.9186,0,0,1.9322,1.9305,1.931,1.9301,1.9291,1.9297,1.9255,1.9263,1.9267,1.9223,1.9236,1.9223,1.921,1.9231,1.924,1.9223,1.9282,1.9258,1.9264,1.9264,1.9275,1.9284,1.9292,1.9189,1.9188,1.9188,0,0,1.9382,1.937,1.9387,1.9378,1.9363,1.9344,1.9348,1.9326,1.9316,1.9328,1.9295,1.9299,1.9302,1.9293,1.9289,1.9346,1.9321,1.9347,1.9386,1.94,1.9407,1.9413,1.9433,1.944,1.9351,1.9351,1.9351,0,1.9423,1.943,1.9399,1.9409,1.9406,1.9366,1.9383,1.9376,1.9362,1.936,1.9342,1.9343,1.9332,1.935,1.9364,1.9362,1.9366,1.9349,1.9408,1.9414,1.942,1.9438,1.9446,1.9354,1.9354,1.9353,1.9353,0,1.9481,1.9486,1.9502,1.9489,1.9487,1.9501,1.9473,1.9475,1.9454,1.9437,1.945,1.9434,1.943,1.9433,1.9413,1.9448,1.9438,1.9414,1.9381,1.9432,1.9449,1.9456,1.9359,1.9357,1.9357,1.9356,0,0,1.9576,1.9545,1.9551,1.9544,1.9525,1.9529,1.954,1.9535,1.9538,1.9529,1.9538,1.9541,1.9519,1.9514,1.9493,1.9505,1.955,1.9479,1.9479,1.9493,1.9587,1.9605,1.9614,1.9533,1.9534,1.9535,1.9588,0,1.9631,1.9649,1.9622,1.9646,1.965,1.9612,1.9623,1.9612,1.9596,1.9598,1.958,1.9583,1.9553,1.955,1.956,1.9542,1.9568,1.9538,1.9541,1.9541,1.9545,1.9622,1.9641,1.9692,1.9595,1.9596,1.9596,0,1.9698,1.9692,1.9717,1.9695,1.9696,1.9706,1.9699,1.9701,1.9688,1.9675,1.967,1.9645,1.9655,1.9623,1.9636,1.9616,1.9615,1.9607,1.9608,1.9607,1.9572,1.9623,1.9708,1.9715,1.9607,1.9606,1.9605,0,1.9764,1.9763,1.9777,1.9773,1.9748,1.9756,1.9746,1.9731,1.9729,1.9723,1.9722,1.9717,1.9715,1.9712,1.9686,1.9665,1.9702,1.9668,1.9692,1.9692,1.9701,1.9701,1.9786,1.9701,1.9701,1.9701,1.9701,0,1.9829,1.9845,1.9807,1.9816,1.9833,1.9801,1.9819,1.9805,1.9792,1.9798,1.9765,1.9771,1.9736,1.9739,1.9718,1.9732,1.9731,1.9721,1.9716,1.9724,1.9725,1.9723,1.9719,1.9703,1.9703,1.9702,1.9702,0,1.9906,1.9881,1.9894,1.9869,1.9863,1.9877,1.9856,1.9863,1.9845,1.9852,1.9852,1.9824,1.9825,1.9799,1.9794,1.9781,1.9803,1.9791,1.9807,1.9804,1.9829,1.9827,1.9916,1.9925,1.9835,1.9836,1.9837,0,1.9949,1.996,1.9937,1.9938,1.9929,1.9932,1.993,1.9899,1.9899,1.9884,1.9893,1.9891,1.9888,1.9891,1.987,1.9866,1.9854,1.9885,1.9853,1.9861,1.9854,1.9854,1.9854,1.9892,1.9893,1.9894,1.9895,0,2.0027,2.0014,2.0012,2.0006,2.0005,1.9999,1.9991,1.9994,1.996,1.9961,1.9962,1.9959,1.9954,1.9953,1.9945,1.9934,1.9909,1.9905,1.991,1.9919,1.9928,1.9923,1.9825,1.9903,1.9902,1.9902,1.9901,1.9901,2.0088,2.0096,2.0081,2.008,2.0071,2.0064,2.0069,2.0052,2.0051,2.0045,2.0027,2.003,2.0016,2.0003,1.9995,1.9996,1.9981,1.9989,1.999,1.9993,1.9998,1.9928,1.9995,1.9995,1.9994,1.9994,1.9994,0,2.0164,2.0152,2.0152,2.0141,2.0141,2.0117,2.0106,2.0108,2.0111,2.01,2.0097,2.0097,2.0095,2.0074,2.0069,2.0075,2.0063,2.0075,2.0074,2.0072,2.0012,2.0008,2.0084,2.0084,2.0084,2.0084,2.0084,2.0084,2.0204,2.0216,2.0201,2.0209,2.0197,2.02,2.0196,2.0189,2.018,2.0181,2.0179,2.0166,2.0151,2.0145,2.0142,2.0135,2.0135,2.0151,2.0141,2.0085,2.0076,2.0068,2.0064,2.0151,2.0151,2.0201,2.0201,2.0201]}]]